This is the latest recevied weather packets stored in our database for station/object KE2HEH. If no packets are shown the sender has not sent any weather packets the latest 10 day(s).
| Time | Temp. | Humidity | Pressure | Rain* | Wind** | Luminosity | Snow |
|---|---|---|---|---|---|---|---|
| 1778152073 | 10.56° C | 91% | 1010.9 hPa | 0 mm | - | 26 W/m² | - |
| 1778151769 | 10.56° C | 92% | 1011.3 hPa | 0 mm | - | 23 W/m² | - |
| 1778151467 | 10.56° C | 92% | 1011 hPa | 0 mm | - | 31 W/m² | - |
| 1778151162 | 10.56° C | 92% | 1010.8 hPa | 0 mm | - | 31 W/m² | - |
| 1778150860 | 10.56° C | 92% | 1010.9 hPa | 0 mm | - | 21 W/m² | - |
| 1778150556 | 10.56° C | 92% | 1010.5 hPa | 0 mm | - | 22 W/m² | - |
| 1778150252 | 10.56° C | 92% | 1010.7 hPa | 0 mm | - | 6 W/m² | - |
| 1778149949 | 10.56° C | 92% | 1010.7 hPa | 0 mm | - | 18 W/m² | - |
| 1778149645 | 10.56° C | 92% | 1010.6 hPa | 0 mm | - | 7 W/m² | - |
| 1778149342 | 10.56° C | 92% | 1010.7 hPa | 0 mm | - | 5 W/m² | - |
| 1778149038 | 10.56° C | 92% | 1010.6 hPa | 0 mm | - | 3 W/m² | - |
| 1778148733 | 10° C | 92% | 1010.4 hPa | 1.27 mm | - | 1 W/m² | - |
| 1778148431 | 10° C | 92% | 1010.3 hPa | 1.27 mm | - | 1 W/m² | - |
| 1778148129 | 10.56° C | 92% | 1010.5 hPa | 0 mm | - | 1 W/m² | - |
| 1778147827 | 10° C | 92% | 1010.4 hPa | 0 mm | - | 0 W/m² | - |
| 1778147523 | 10° C | 92% | 1010 hPa | 0 mm | - | 0 W/m² | - |
| 1778147220 | 10° C | 93% | 1010.1 hPa | 0 mm | - | 0 W/m² | - |
| 1778146916 | 10° C | 93% | 1010.1 hPa | 0 mm | - | 0 W/m² | - |
| 1778146614 | 10.56° C | 93% | 1010 hPa | 0 mm | - | 0 W/m² | - |
| 1778146312 | 10° C | 93% | 1010.2 hPa | 0 mm | - | 0 W/m² | - |
| 1778146009 | 10.56° C | 93% | 1010.2 hPa | 0 mm | - | 0 W/m² | - |
| 1778145705 | 10.56° C | 93% | 1009.8 hPa | 0 mm | - | 0 W/m² | - |
| 1778145402 | 10.56° C | 93% | 1009.8 hPa | 0 mm | - | 0 W/m² | - |
| 1778145098 | 10.56° C | 93% | 1009.9 hPa | 0 mm | - | 0 W/m² | - |
| 1778144794 | 10.56° C | 93% | 1010 hPa | 0 mm | - | 0 W/m² | - |
* Rain latest hour (hover to see other rain measurements)
** Current wind speed in m/s (hover to see current wind gust speed)